Weather in Proshkovo

Russia / Novgorod Oblast     58°18′27″N   33°52′20″E
temp.,
°C
wind,
m/s
gust,
m/s
humid.,
%
clouds,
%
prec.,
mm/h
press.,
hPa
HPBL,
m
28 september, tue
tue2800:00+5nne289631 0.0 1030189
03:00+5nne249830 0.0 1031104
06:00+4ne259886 0.0 1032121
09:00+7ene3788100 0.0 1032489
12:00+9e347179 0.0 1033998
15:00+10e2363100 0.1 1034972
18:00+8ne117159 0.0 103411
21:00+5ene118519 0.0 103510
29 september, wed
wed2900:00+4e119011 0.0 103710
03:00+3ne009259 0.0 103710
06:00+3nw1192100 0.0 103710
09:00+6n018091 0.0 1037115
12:00+11n116352 0.0 1037534
15:00+12n115898 0.0 1036803
18:00+8nne117668 0.0 103610
21:00+6n00845 0.0 103610
30 september, thu
thu3000:00+5wnw00895 0.0 103610
03:00+4w11916 0.0 103610
06:00+3wsw00929 0.0 103610
09:00+7s007963 0.0 1036109
12:00+11sse116193 0.0 1035548
15:00+12s1256100 0.0 1035792
18:00+9sse227573 0.0 103412
21:00+7s228399 0.0 103425
1 october, fri
fri100:00+6ssw228728 0.0 103437
03:00+5sw22875 0.0 103429
06:00+4ssw228747 0.0 103422
09:00+7ssw247365 0.0 1034163
12:00+12sw345443 0.0 1034695
15:00+13sw344852 0.0 1033984
18:00+9sw227050 0.0 103210
21:00+6ssw227978 0.0 103326
2 october, sat
sat200:00+5ssw238335 0.0 103345
03:00+5ssw23875 0.0 103348
06:00+4ssw23915 0.0 103254
09:00+7s257812 0.0 1032171
12:00+12ssw355824 0.0 1031738
15:00+14s35525 0.0 10301090
18:00+10s2272100 0.0 103032
21:00+9s2680100 0.0 1030140